[[{"header":{"parameterUnit":"m.s-1","parameterCategory":1,"la1":30.2991,"la2":30.254,"lo1":-89.0895,"lo2":-89.0444,"dy":0.0017,"dx":0.0017,"nx":28,"ny":28,"refTime":"2025-11-17T09:00:00:Z","depth":0,"parameterNumber":2,"parameterNumberName":"U-component_of_WINDS"},"data":[0,0,0,0,0,0,0,0,0,0,0,0,0,0,0,0,0,0,0,0,0,0,0,0,0,0,0,0,0,0,0,0,0,0,0,0,0,0,0,0,0,0,0,0,0,0,0,0,0,0,0,0,0,0,0,0,0,0,-1.354,-1.354,0,-1.3547,-1.3547,-1.3547,-1.3524,-1.3523,-1.3522,-1.3522,-1.3531,-1.3532,-1.3533,0,0,0,0,0,0,0,0,0,0,0,0,0,-1.3508,-1.3509,-1.354,-1.354,-1.354,-1.3547,-1.3547,-1.3547,-1.3524,-1.3523,-1.3522,-1.3521,-1.3531,-1.3532,-1.3533,0,0,0,0,0,0,0,0,0,0,0,0,0,-1.352,-1.3509,-1.354,-1.3529,-1.3529,-1.3547,-1.3547,-1.3547,-1.3524,-1.3523,-1.3522,-1.3521,-1.353,-1.3532,-1.3533,-1.3563,0,0,-1.3537,-1.3538,0,0,0,0,0,0,0,0,-1.3519,-1.3521,-1.3531,-1.353,-1.3529,-1.3533,-1.3539,-1.3553,-1.3524,-1.3526,-1.3522,-1.3521,-1.3533,-1.3534,-1.3538,-1.3563,-1.3564,-1.3537,-1.3538,-1.3539,-1.3539,0,0,0,0,0,0,0,-1.3518,-1.352,-1.3543,-1.3531,-1.353,-1.3525,-1.3525,-1.3542,-1.3535,-1.3526,-1.3524,-1.3525,-1.3532,-1.3536,-1.3538,-1.3564,-1.3537,-1.3539,-1.3539,-1.354,-1.3615,-1.3616,0,0,0,0,0,0,-1.3518,-1.352,-1.3543,-1.3543,-1.3521,-1.3526,-1.3527,-1.3533,-1.3535,-1.3534,-1.3526,-1.3524,-1.3535,-1.3536,-1.3538,-1.3573,-1.3539,-1.354,-1.3541,-1.3613,-1.3615,-1.3616,0,0,0,0,0,0,-1.3518,-1.3521,-1.3542,-1.3531,-1.3533,-1.3528,-1.3535,-1.3534,-1.3538,-1.3535,-1.3534,-1.3531,-1.3534,-1.3536,-1.3557,-1.3573,-1.3541,-1.3542,-1.3612,-1.3614,-1.3615,-1.3643,0,0,0,0,0,0,-1.3517,-1.3521,-1.3532,-1.3531,-1.3534,-1.3561,-1.3536,-1.3535,-1.354,-1.3538,-1.354,-1.3539,-1.3533,-1.3555,-1.3558,-1.3574,-1.3543,-1.3611,-1.3613,-1.3615,-1.364,-1.3645,-1.3649,0,0,0,0,0,-1.3516,-1.3539,-1.3532,-1.3535,-1.3547,-1.3561,-1.3563,-1.3555,-1.3542,-1.3553,-1.3551,-1.3539,-1.3571,-1.3557,-1.3561,-1.3577,-1.3609,-1.3612,-1.3615,-1.3638,-1.3644,-1.3649,0,0,0,0,0,0,-1.3542,-1.3539,-1.3531,-1.3555,-1.3559,-1.3557,-1.3571,-1.3561,-1.3569,-1.3567,-1.3557,-1.3558,-1.358,-1.3581,-1.3566,-1.3606,-1.3588,-1.3591,-1.3605,-1.361,-1.3615,-1.3614,-1.3544,0,0,0,0,0,-1.3551,-1.3562,-1.3559,-1.358,-1.3582,-1.3577,-1.3583,-1.3576,-1.3579,-1.3581,-1.3581,-1.3585,-1.3596,-1.3603,-1.3613,-1.3641,-1.3641,-1.3654,-1.3658,-1.3662,-1.3665,-1.368,-1.3685,-1.3625,-1.3625,-1.3625,0,0,-1.3569,-1.3568,-1.3576,-1.3586,-1.3588,-1.36,-1.3578,-1.3592,-1.3601,-1.3583,-1.3602,-1.3603,-1.3607,-1.3631,-1.3642,-1.3633,-1.3682,-1.3665,-1.3668,-1.3669,-1.3683,-1.3689,-1.3694,-1.3626,-1.3626,-1.3626,0,0,-1.3607,-1.3608,-1.3626,-1.3628,-1.3631,-1.3627,-1.3631,-1.3632,-1.3631,-1.365,-1.3637,-1.3648,-1.3667,-1.367,-1.3675,-1.3715,-1.3704,-1.3718,-1.3741,-1.3756,-1.376,-1.3765,-1.3779,-1.3784,-1.3721,-1.3721,-1.3721,0,-1.3629,-1.3646,-1.3636,-1.3651,-1.3656,-1.364,-1.3658,-1.3661,-1.3667,-1.3671,-1.366,-1.3684,-1.3685,-1.371,-1.372,-1.3724,-1.3729,-1.3718,-1.376,-1.3765,-1.3768,-1.3782,-1.3787,-1.3723,-1.3723,-1.3723,-1.3722,0,-1.3673,-1.3685,-1.3699,-1.3705,-1.3711,-1.3728,-1.3721,-1.3729,-1.3722,-1.3719,-1.3739,-1.374,-1.375,-1.3756,-1.3749,-1.3779,-1.3773,-1.3762,-1.3743,-1.3776,-1.3788,-1.3793,-1.3725,-1.3725,-1.3724,-1.3724,0,0,-1.3728,-1.3728,-1.3733,-1.3735,-1.3737,-1.3747,-1.3763,-1.3772,-1.3778,-1.3784,-1.3797,-1.3813,-1.3802,-1.3807,-1.3801,-1.3814,-1.3845,-1.3801,-1.3801,-1.3809,-1.3879,-1.3887,-1.3893,-1.3839,-1.3839,-1.384,-1.3878,0,-1.3765,-1.3791,-1.3783,-1.381,-1.3821,-1.3806,-1.382,-1.3823,-1.3821,-1.3831,-1.3829,-1.384,-1.3826,-1.3828,-1.384,-1.3839,-1.3859,-1.3836,-1.3851,-1.3852,-1.385,-1.3899,-1.3908,-1.3943,-1.3883,-1.3884,-1.3884,0,-1.3812,-1.3818,-1.3846,-1.3846,-1.385,-1.3863,-1.387,-1.388,-1.3883,-1.3881,-1.3886,-1.3878,-1.3894,-1.3875,-1.3898,-1.3882,-1.3888,-1.3888,-1.389,-1.389,-1.3869,-1.3901,-1.3955,-1.396,-1.3892,-1.3891,-1.3891,0,-1.3849,-1.3864,-1.3883,-1.3885,-1.3886,-1.3895,-1.3896,-1.3898,-1.3904,-1.3911,-1.3914,-1.3924,-1.3928,-1.3936,-1.393,-1.3917,-1.3953,-1.3935,-1.3952,-1.3952,-1.396,-1.396,-1.4015,-1.3965,-1.3965,-1.3965,-1.3964,0,-1.3892,-1.3909,-1.3899,-1.391,-1.3929,-1.392,-1.394,-1.3939,-1.3941,-1.3952,-1.3941,-1.3952,-1.3944,-1.3954,-1.395,-1.3969,-1.3972,-1.397,-1.3969,-1.3971,-1.3971,-1.3974,-1.3972,-1.3966,-1.3966,-1.3965,-1.3965,0,-1.3936,-1.393,-1.3949,-1.3947,-1.3948,-1.3962,-1.3961,-1.3972,-1.3969,-1.3983,-1.3986,-1.3982,-1.3994,-1.3989,-1.4002,-1.3999,-1.4023,-1.4019,-1.4022,-1.402,-1.4038,-1.4036,-1.4097,-1.4105,-1.405,-1.4051,-1.4051,0,-1.3963,-1.3976,-1.3976,-1.3982,-1.3983,-1.3994,-1.3999,-1.3991,-1.3997,-1.4002,-1.4013,-1.4023,-1.4031,-1.4051,-1.4049,-1.4059,-1.4055,-1.4075,-1.4056,-1.4058,-1.4054,-1.4054,-1.4055,-1.4079,-1.408,-1.408,-1.4081,0,-1.4012,-1.4008,-1.4016,-1.4023,-1.403,-1.4035,-1.404,-1.4046,-1.4038,-1.4046,-1.4057,-1.4063,-1.4076,-1.4087,-1.4095,-1.4097,-1.4088,-1.4087,-1.4091,-1.4093,-1.4094,-1.4093,-1.4032,-1.4085,-1.4085,-1.4085,-1.4084,-1.4084,-1.4048,-1.4058,-1.406,-1.4069,-1.4072,-1.4076,-1.4086,-1.4084,-1.4093,-1.4102,-1.4097,-1.411,-1.4114,-1.4124,-1.4127,-1.4138,-1.413,-1.4136,-1.4138,-1.414,-1.4142,-1.4093,-1.414,-1.4139,-1.4139,-1.4139,-1.4139,0,-1.4095,-1.4096,-1.4104,-1.411,-1.4118,-1.4108,-1.4112,-1.4119,-1.4131,-1.4135,-1.4142,-1.4156,-1.4166,-1.4165,-1.4175,-1.4184,-1.418,-1.4187,-1.4186,-1.4186,-1.4149,-1.4143,-1.419,-1.419,-1.419,-1.419,-1.419,-1.419,-1.4121,-1.4138,-1.4135,-1.4153,-1.4153,-1.4165,-1.4169,-1.4173,-1.4176,-1.4191,-1.4199,-1.4198,-1.42,-1.421,-1.4219,-1.4219,-1.4223,-1.4231,-1.4229,-1.4194,-1.4189,-1.4184,-1.4179,-1.4232,-1.4232,-1.4266,-1.4266,-1.4267]},{"header":{"parameterUnit":"m.s-1","parameterCategory":1,"la1":30.2991,"la2":30.254,"lo1":-89.0895,"lo2":-89.0444,"dy":0.0017,"dx":0.0017,"nx":28,"ny":28,"refTime":"2025-11-17T09:00:00:Z","depth":0,"parameterNumber":3,"parameterNumberName":"V-component_of_WINDS"},"data":[0,0,0,0,0,0,0,0,0,0,0,0,0,0,0,0,0,0,0,0,0,0,0,0,0,0,0,0,0,0,0,0,0,0,0,0,0,0,0,0,0,0,0,0,0,0,0,0,0,0,0,0,0,0,0,0,0,0,0.8371,0.8371,0,0.8369,0.8369,0.8369,0.837,0.837,0.837,0.837,0.8367,0.8367,0.8367,0,0,0,0,0,0,0,0,0,0,0,0,0,0.8374,0.8374,0.8371,0.8371,0.8371,0.8369,0.8369,0.8369,0.837,0.837,0.837,0.837,0.8367,0.8367,0.8367,0,0,0,0,0,0,0,0,0,0,0,0,0,0.8373,0.8374,0.8371,0.8371,0.8371,0.8369,0.8369,0.8369,0.837,0.837,0.837,0.837,0.8367,0.8367,0.8366,0.8364,0,0,0.8366,0.8366,0,0,0,0,0,0,0,0,0.8373,0.8373,0.8371,0.8371,0.8371,0.837,0.8369,0.8367,0.837,0.837,0.837,0.837,0.8368,0.8367,0.8367,0.8364,0.8364,0.8366,0.8366,0.8366,0.8366,0,0,0,0,0,0,0,0.8373,0.8373,0.837,0.8371,0.8371,0.8371,0.8371,0.8369,0.8369,0.837,0.837,0.837,0.8368,0.8367,0.8367,0.8364,0.8366,0.8366,0.8366,0.8366,0.836,0.8359,0,0,0,0,0,0,0.8373,0.8373,0.837,0.837,0.8372,0.8371,0.8371,0.837,0.8369,0.8368,0.837,0.837,0.8367,0.8367,0.8367,0.8364,0.8366,0.8366,0.8365,0.836,0.836,0.8359,0,0,0,0,0,0,0.8373,0.8373,0.8371,0.8372,0.8371,0.8371,0.837,0.837,0.837,0.8369,0.8368,0.837,0.8367,0.8367,0.8365,0.8364,0.8365,0.8365,0.836,0.836,0.8359,0.8359,0,0,0,0,0,0,0.8373,0.8373,0.8372,0.8372,0.8371,0.8369,0.837,0.837,0.8369,0.837,0.8368,0.8368,0.8367,0.8365,0.8365,0.8364,0.8365,0.836,0.836,0.8359,0.8359,0.8359,0.8359,0,0,0,0,0,0.8374,0.8372,0.8372,0.8372,0.837,0.8369,0.8369,0.8369,0.8369,0.8369,0.8368,0.8368,0.8364,0.8365,0.8365,0.8364,0.836,0.836,0.836,0.8359,0.8359,0.8359,0,0,0,0,0,0,0.8372,0.8372,0.8372,0.837,0.837,0.8369,0.8368,0.8368,0.8367,0.8367,0.8367,0.8367,0.8365,0.8364,0.8365,0.8362,0.8362,0.8362,0.8362,0.8362,0.8362,0.8362,0.8365,0,0,0,0,0,0.8371,0.837,0.837,0.8369,0.8368,0.8368,0.8368,0.8368,0.8367,0.8367,0.8366,0.8365,0.8364,0.8363,0.8361,0.8359,0.8359,0.8358,0.8358,0.8358,0.8358,0.8357,0.8357,0.8359,0.8359,0.8359,0,0,0.837,0.837,0.8369,0.8368,0.8368,0.8367,0.8368,0.8367,0.8366,0.8366,0.8365,0.8364,0.8363,0.8361,0.836,0.836,0.8357,0.8358,0.8358,0.8358,0.8357,0.8357,0.8357,0.8359,0.8359,0.8359,0,0,0.8367,0.8367,0.8366,0.8365,0.8365,0.8365,0.8365,0.8365,0.8364,0.8363,0.8363,0.8362,0.836,0.8359,0.8359,0.8357,0.8357,0.8356,0.8356,0.8355,0.8355,0.8355,0.8354,0.8354,0.8356,0.8356,0.8356,0,0.8365,0.8364,0.8365,0.8364,0.8364,0.8365,0.8364,0.8363,0.8362,0.8362,0.8362,0.836,0.8359,0.8358,0.8357,0.8357,0.8356,0.8357,0.8355,0.8355,0.8355,0.8354,0.8354,0.8356,0.8356,0.8356,0.8356,0,0.8362,0.8362,0.8361,0.8361,0.836,0.8359,0.836,0.8359,0.836,0.836,0.8358,0.8358,0.8357,0.8356,0.8356,0.8355,0.8355,0.8355,0.8356,0.8354,0.8354,0.8354,0.8356,0.8356,0.8356,0.8356,0,0,0.8357,0.8359,0.8358,0.8359,0.8359,0.8358,0.8357,0.8357,0.8357,0.8356,0.8356,0.8354,0.8355,0.8354,0.8354,0.8353,0.8353,0.8354,0.8354,0.8354,0.8351,0.8351,0.8351,0.8353,0.8353,0.8353,0.8352,0,0.8355,0.8354,0.8355,0.8354,0.8354,0.8355,0.8354,0.8354,0.8354,0.8354,0.8354,0.8353,0.8354,0.8353,0.8353,0.8353,0.8352,0.8353,0.8352,0.8352,0.8353,0.8351,0.8351,0.835,0.8351,0.8351,0.8351,0,0.8352,0.8352,0.8351,0.8352,0.8352,0.8352,0.8352,0.8351,0.8351,0.8352,0.8351,0.8352,0.8351,0.8352,0.8351,0.8351,0.8351,0.8351,0.8351,0.8351,0.8352,0.8351,0.8349,0.8349,0.8351,0.8351,0.8351,0,0.8349,0.8349,0.8349,0.8349,0.835,0.835,0.835,0.835,0.835,0.835,0.835,0.835,0.835,0.8349,0.835,0.835,0.8349,0.8349,0.8349,0.8349,0.8349,0.8349,0.8347,0.8348,0.8348,0.8348,0.8348,0,0.8346,0.8346,0.8348,0.8347,0.8347,0.8348,0.8348,0.8348,0.8348,0.8348,0.8349,0.8349,0.8349,0.8349,0.8349,0.8349,0.8348,0.8349,0.8349,0.8349,0.8349,0.8348,0.8349,0.8348,0.8348,0.8348,0.8348,0,0.8343,0.8344,0.8344,0.8345,0.8346,0.8345,0.8347,0.8346,0.8347,0.8347,0.8347,0.8347,0.8347,0.8348,0.8347,0.8348,0.8347,0.8347,0.8347,0.8347,0.8347,0.8347,0.8345,0.8345,0.8346,0.8346,0.8346,0,0.8341,0.8341,0.8343,0.8343,0.8343,0.8344,0.8344,0.8345,0.8345,0.8346,0.8346,0.8346,0.8346,0.8346,0.8346,0.8346,0.8346,0.8346,0.8346,0.8346,0.8347,0.8347,0.8347,0.8346,0.8346,0.8346,0.8346,0,0.8338,0.8339,0.8339,0.834,0.8341,0.8342,0.8342,0.8342,0.8344,0.8344,0.8344,0.8344,0.8345,0.8345,0.8345,0.8345,0.8346,0.8346,0.8345,0.8345,0.8346,0.8346,0.8347,0.8345,0.8345,0.8345,0.8345,0.8345,0.8335,0.8336,0.8337,0.8338,0.8339,0.834,0.834,0.8341,0.8341,0.8342,0.8343,0.8343,0.8344,0.8344,0.8344,0.8344,0.8345,0.8344,0.8344,0.8344,0.8345,0.8346,0.8344,0.8344,0.8344,0.8344,0.8344,0,0.8332,0.8334,0.8335,0.8336,0.8337,0.8338,0.8339,0.8339,0.834,0.8341,0.8341,0.8342,0.8342,0.8343,0.8343,0.8343,0.8344,0.8343,0.8343,0.8344,0.8344,0.8344,0.8343,0.8343,0.8343,0.8343,0.8343,0.8343,0.8331,0.8332,0.8333,0.8334,0.8335,0.8336,0.8337,0.8337,0.8338,0.8339,0.834,0.834,0.8341,0.8342,0.8342,0.8343,0.8343,0.8343,0.8343,0.8343,0.8343,0.8344,0.8344,0.8343,0.8343,0.8342,0.8342,0.8342]}]]